Miscellaneous Local Product
Issued by NWS Hastings, NE

Home | Current Version | Previous Version | Graphics & Text | Print | Product List | Glossary On
Versions: 1 2 3 4 5 6 7 8 9 10 11 12 13 14 15 16 17 18 19 20 21 22 23 24 25 26 27 28 29 30 31 32 33 34 35 36 37 38 39 40 41 42 43 44 45 46 47 48 49 50
907
AXUS43 KGID 261602
MISGRI

GID CWA HOURLY WEATHER ROUNDUP
NATIONAL WEATHER SERVICE HASTINGS NE
1100 AM CDT FRI MAY 26 2017

NOTE: "FAIR" INDICATES FEW OR NO CLOUDS BELOW 12,000 FEET WITH NO
SIGNIFICANT WEATHER AND/OR OBSTRUCTIONS TO VISIBILITY.

...SOUTH CENTRAL NEBRASKA...

CITY           SKY/WX    TMP DP  RH WIND       PRES   REMARKS
GRAND ISLAND   MOSUNNY   66  46  48 N14G23    29.87R
HASTINGS       CLOUDY    68  47  46 N14       29.87R
KEARNEY        CLOUDY    64  45  48 N14G21    29.89R
ORD            SUNNY     65  45  48 N15       29.87R
YORK           CLOUDY    68  48  49 N17G23    29.83S
AURORA         MOSUNNY   67  45  44 N14G21    29.85R
LEXINGTON      CLOUDY    64  46  53 N12G18    29.90R
HOLDREGE       MOSUNNY   64  43  46 N15       29.88R
HEBRON         SUNNY     72  49  44 N14       29.81S

...NEBRASKA PANHANDLE...

CITY           SKY/WX    TMP DP  RH WIND       PRES   REMARKS
CHADRON        SUNNY     59  37  44 E3        29.94S
ALLIANCE       SUNNY     57  39  51 N5        29.95S
SCOTTSBLUFF    CLOUDY    57  38  48 MISG      29.97S
SIDNEY         SUNNY     57  39  51 N5        29.98S

...WESTERN AND NORTH CENTRAL NEBRASKA...

CITY           SKY/WX    TMP DP  RH WIND       PRES   REMARKS
VALENTINE      SUNNY     65  37  35 NW13G21   29.92S
AINSWORTH      SUNNY     60  42  49 N17G23    29.91S
ONEILL         CLOUDY    63  43  46 NW18      29.88S
BROKEN BOW     SUNNY     64  42  44 N15G25    29.89R
IMPERIAL       SUNNY     61  45  55 N14       29.96R
NORTH PLATTE   SUNNY     64  44  48 N8G20     29.93R
MCCOOK         PTSUNNY   63  45  51 N10       29.92S

...EASTERN NEBRASKA...

CITY           SKY/WX    TMP DP  RH WIND       PRES   REMARKS
NORFOLK        MOSUNNY   66  47  50 NW17      29.83R
SO SIOUX CITY  CLOUDY    63  51  65 NW17      29.80R
TEKAMAH        MOSUNNY   69  52  54 N15       29.78S
ALBION         SUNNY     67  45  44 N16G25    29.84S
OMAHA EPPLEY   MOSUNNY   69  56  62 N17       29.77R
OFFUTT AFB     MOSUNNY   73  58  59 N10       29.76R
MILLARD        MOSUNNY   71  56  58 NW12      29.79R
LINCOLN        SUNNY     72  51  47 N16       29.80R
NEBRASKA CITY  SUNNY     76  55  48 NE10      29.76S
BEATRICE       SUNNY     75  57  53 N15G22    29.79R
FALLS CITY     SUNNY     76  63  64 NW13      29.74R

...NORTHERN KANSAS...

CITY           SKY/WX    TMP DP  RH WIND       PRES   REMARKS
GOODLAND       SUNNY     60  48  64 N13       29.95R
HILL CITY      SUNNY     68  49  50 N13       29.90R
NORTON         MOSUNNY   64  46  52 N12G17    29.89S
PHILLIPSBURG   SUNNY     70  48  46 N12       29.88R
SMITH CENTER   SUNNY     66  48  52 N17G25    29.84S
HAYS           SUNNY     68  54  60 N16       29.86R
RUSSELL        SUNNY     69  57  65 N15       29.82R
CONCORDIA      SUNNY     71  58  63 N14       29.79S
SALINA         SUNNY     76  64  66 N10       29.78S
TOPEKA         MOSUNNY   77  66  68 VRB5      29.74R



USA.gov is the U.S. government's official web portal to all federal, state and local government web resources and services.